Simultaneous Nadir Overpasses (SNOs) Predictions

Prediction of SNOs between METOP-B and TERRA Satellite Orbit:

Table of predicted SNOs for the next 14.0 days since TLE Epoch: 5/3/2025
Index Date (METOP-B) Time (METOP-B) Lat,Lon (METOP-B) SZA (METOP-B ) Date (TERRA) Time (TERRA) Lat,Lon (TERRA) SZA (TERRA ) Distance(km) Time Diff (sec)
1 05/05/2025 04:29:17 -78.38, -63.35 117.96 05/05/2025 04:29:46 -78.39, -63.26 117.95 2.46 29
2 05/05/2025 05:19:43 78.93, 107.26 62.66 05/05/2025 05:18:52 78.92, 107.15 62.64 2.56 51
3 05/07/2025 18:08:48 78.61, -86.98 61.58 05/07/2025 18:08:49 78.61, -87.00 61.58 0.47 1
4 05/10/2025 06:57:51 78.31, 79.06 60.57 05/10/2025 06:58:44 78.31, 79.01 60.57 1.28 53
5 05/10/2025 07:48:22 -78.73,-111.24 118.98 05/10/2025 07:47:55 -78.73,-111.25 118.98 0.19 27
6 05/12/2025 20:37:29 -78.31, 54.09 120.09 05/12/2025 20:37:53 -78.31, 54.21 120.08 2.92 24
7 05/12/2025 21:27:57 78.77,-135.89 60.43 05/12/2025 21:27:00 78.78,-135.77 60.44 2.84 57
8 05/15/2025 09:27:36 -75.16,-150.46 123.75 05/15/2025 09:28:50 -75.00,-149.66 123.95 28.84 74



Historial Predications of SNOs between METOP-B and TERRA
